FW2541 Weather Reports


Display with metric or nautical units.
time (UTC)temp
F
wind
direction
speed
MPH
gust
MPH
rain 1hr
in
rain 24hr
in
rain mn
in
humidity
%
barometer
mb
20260505013016 60 0 6.0 19.0 0.00 0.00 0.00 35 1011.2
20260505010016 61 0 6.0 16.0 0.00 0.00 0.00 33 1010.8
20260505003015 63 0 7.0 15.0 0.00 0.00 0.00 31 1010.1
20260505000015 64 0 9.0 21.0 0.00 0.00 0.00 30 1009.1
20260504233015 66 0 9.0 21.0 0.00 0.00 0.00 28 1008.6
20260504230015 68 0 9.0 25.0 0.00 0.00 0.00 26 1008.1
20260504223015 69 0 10.0 23.0 0.00 0.00 0.00 23 1007.6
20260504220015 72 0 7.0 20.0 0.00 0.00 0.00 18 1007.6
20260504213015 73 0 8.0 21.0 0.00 0.00 0.00 15 1007.5
20260504210015 74 0 7.0 21.0 0.00 0.00 0.00 15 1007.5
20260504203015 73 0 8.0 21.0 0.00 0.00 0.00 14 1007.6
20260504200015 73 0 8.0 22.0 0.00 0.00 0.00 13 1007.7
20260504193015 73 0 9.0 21.0 0.00 0.00 0.00 13 1007.7
20260504190015 73 0 8.0 21.0 0.00 0.00 0.00 11 1007.8
20260504183017 72 0 9.0 27.0 0.00 0.00 0.00 13 1008.2
20260504180017 71 0 9.0 25.0 0.00 0.00 0.00 14 1008.4
20260504173017 70 0 9.0 23.0 0.00 0.00 0.00 15 1008.5
20260504050016 38 0.0 1.0 0.00 0.00 0.00 48 1011.3
20260504043016 39 0.0 1.0 0.00 0.00 0.00 47 1011.2
20260504040016 40 0.0 2.0 0.00 0.00 0.00 47 1010.9
20260504033016 41 0 1.0 4.0 0.00 0.00 0.00 45 1010.8
20260504030036 42 0 1.0 5.0 0.00 0.00 0.00 44 1010.8
20260504023036 42 0 1.0 3.0 0.00 0.00 0.00 44 1010.7
20260504020015 44 0.0 3.0 0.00 0.00 0.00 41 1010.7